Tracking 18945 objects as of 20-Jan-2018
HD Live streaming from Space Station
objects crossing your sky now

FENGYUN 1C DEB

Track FENGYUN 1C DEB now!
10-day predictions


NORAD ID: 33683
Int'l Code: 1999-025DFU
Perigee: 715.3 km
Apogee: 819.2 km
Inclination: 98.3 °
Period: 100.0 minutes
Semi major axis: 7138 km
RCS: 0.0034 m2 (small)
Launch date: May 10, 1999
Source: People's Republic of China (PRC)
Launch site: Taiyaun Space Center, China (TSC)

Note: This is SATELLITE DEBRIS
aabbcc
Your satellite tracking list
Your tracking list is empty




NASA's NSSDC Master Catalog

Two Line Element Set (TLE):
1 33683U 99025DFU 18019.44817618 +.00001391 +00000-0 +44625-3 0  9994
2 33683 098.3247 256.7944 0072830 288.8338 070.4962 14.39511024512180
Source of the keplerian elements: AFSPC